EKRAN 3 1 11273U 79015A 21065.78453831 .00000055 00000-0 00000+0 0 9998 2 11273 9.8176 304.3474 0038371 320.5069 240.0428 1.00231665115662 SL-12 R/B(2) 1 13900U 79015D 21065.58170425 -.00000239 00000-0 00000+0 0 9995 2 13900 9.0953 301.6557 0006668 274.0862 278.3993 1.01341408107497